Weather Roundup
Issued by NWS Chicago, IL

Home | Current Version | Previous Version | Graphics & Text | Print | Product List | Glossary On
Versions: 1 2 3 4 5 6 7 8 9 10 11 12 13 14 15 16 17 18 19 20 21 22 23 24 25 26 27 28 29 30 31 32 33 34 35 36 37 38 39 40 41 42 43 44 45 46 47 48 49 50
000
NZUS59 KLOT 262303
HRRLOT

CHICAGO AREA WEATHER ROUNDUP
NATIONAL WEATHER SERVICE CHICAGO/ROMEOVILLE IL
600 PM CDT TUE JUL 26 2016

NOTE: "FAIR" INDICATES FEW OR NO CLOUDS BELOW 12,000 FEET WITH NO
SIGNIFICANT WEATHER AND/OR OBSTRUCTIONS TO VISIBILITY.

* THESE STATIONS ARE NOT UNDER NWS QUALITY CONTROL. THEY ALSO MAY NOT
  REPORT WEATHER SUCH AS PRECIPITATION OR FOG.

ILZ005-006-012>014-019>023-270000-
NORTHEAST ILLINOIS

CITY           SKY/WX    TMP DP  RH WIND       PRES   REMARKS
OHARE          MOSUNNY   85  64  49 E8        29.99F HX  86
MIDWAY         MOSUNNY   85  63  47 E9        29.99F HX  86
AURORA         SUNNY     85  68  56 W5        30.00F HX  88
LANSING*       SUNNY     83  62  48 NE6       30.00S HX  84
WAUKEGAN       SUNNY     81  64  56 E6        30.00F HX  82
DUPAGE AIRPORT PTSUNNY   86  65  49 NW6       29.99F HX  88
WHEELING       SUNNY     83  61  47 NE7       30.01S HX  83
KANKAKEE*      SUNNY     84  69  59 SE5       30.02R HX  88
MORRIS*        CLOUDY    84  69  59 CALM      29.99S HX  88
NORTHERLY ISL    N/A     79  70  74 NE3         N/A  HX  82
$$

WIZ051-052-058>065-066-070>072-270000-
SOUTHEAST WISCONSIN

CITY           SKY/WX    TMP DP  RH WIND       PRES   REMARKS
MILWAUKEE      MOSUNNY   83  59  44 SE13      30.00F HX  83
KENOSHA*       SUNNY     84  63  49 SE6       30.00F HX  85
RACINE*        SUNNY     82  58  43 SE9       30.02F HX  82
BURLINGTON     SUNNY     85  63  48 W5        30.01S HX  85
WAUKESHA       SUNNY     82  59  44 NW5       30.02F HX  82
$$

INZ001>003-010>013-019-020-270000-
NORTHWEST INDIANA

CITY           SKY/WX    TMP DP  RH WIND       PRES   REMARKS
GARY*          MOSUNNY   82  66  57 N8        30.01S HX  85
MICHIGAN CITY* NOT AVBL
RENSSELAER*    NOT AVBL
VALPARAISO     SUNNY     85  63  47 N5        30.01S HX  86
$$

LMZ740>746-270000-
SOUTHERN LAKE MICHIGAN

STATION/POSITION TIME  SKY/WX   TEMP WIND        PRES    VSBY
                                AIR  DIR/SP/G
                 (UTC)          (F)  (DEG/KT/KT) (MB)    (MI)
HARRISON CRIB    2200            79   70/  7/  7   N/A
BURNHAM HARBOR   2300            79   50/  3/  5   N/A
CALUMET HARBOR   2200            78                N/A
BURNS HARBOR     2200            79   60/  8/  9 1016.6F
MICHIGAN CITY    2200            78   20/  8/  9   N/A
$$

ABBREVIATIONS USED IN REMARKS
   TC - TEMPERATURE IN CELSIUS
  WCI - WIND CHILL INDEX
   HX - HEAT INDEX
  VSB - VISIBILITY
$$




USA.gov is the U.S. government's official web portal to all federal, state and local government web resources and services.